Flag for U.S.A. Weather past 2 weeks in Germantown, Maryland, U.S.A.

Now
43 °F

Clear.


Feels Like: 43 °F
Forecast: 44 / 66 °F
Wind: No wind

Location: Frederick Municipal Airport


UV Index: 0 (Low)

Visibility: 10 mi


Pressure: 30.05 "Hg

Humidity: 87%

Dew point: 39 °F

Location of GermantownLocation

Historic Weather in Germantown

°F

Germantown temperature yesterday

Maximum temperature yesterday: 64 °F (at 4:50 PM)
Minimum temperature yesterday: 37 °F (at 6:10 AM)
Average temperature yesterday: 47 °F

Past Weeks' High & Low Weather Summary

 TemperatureHumidityPressure
High84 °F (Apr 13, 3:50 PM)100% (Apr 10, 2:15 AM)30.68 "Hg (Apr 10, 2:15 AM)
Low30 °F (Apr 16, 6:45 AM)20% (Apr 21, 5:50 PM)29.59 "Hg (Apr 15, 11:45 AM)
Average51 °F69%30.14 "Hg
* Reported Apr 9 11:15 PM — Apr 24 11:35 PM, Germantown, Weather by CustomWeather, © 2014

Note: Actual official high and low records may vary slightly from our data, if they occured in-between our weather recording intervals... More about our weather records

Advertising

Historic Weather Conditions — Data for Previous 24 hours

 ConditionsComfort  
Time TempWeatherWind HumidityBarometerVisibility
11:35 PM
Apr 24
43 °FClear.No wind87%30.05 "Hg10 mi
11:15 PM45 °FClear.No wind76%30.05 "Hg10 mi
10:55 PM45 °FClear.No wind76%30.05 "Hg10 mi
10:35 PM46 °FClear.3 mph71%30.05 "Hg10 mi
10:15 PM46 °FClear.No wind71%30.06 "Hg10 mi
9:55 PM46 °FClear.No wind71%30.05 "Hg10 mi
9:35 PM46 °FClear.No wind66%30.05 "Hg10 mi
9:15 PM50 °FClear.No wind58%30.05 "Hg10 mi
8:55 PM52 °FClear.3 mph47%30.04 "Hg10 mi
7:15 PM61 °FSunny.No wind31%30.03 "Hg10 mi
5:45 PM64 °FSunny.8 mph26%30.03 "Hg10 mi
4:50 PM64 °FSunny.7 mph28%30.03 "Hg10 mi
2:49 PM63 °FSunny.3 mph27%30.07 "Hg10 mi
2:00 PM61 °FSunny.7 mph29%30.08 "Hg10 mi
12:53 PM57 °FSunny.7 mph31%30.11 "Hg10 mi
10:50 AM54 °FSunny.7 mph35%30.15 "Hg10 mi
9:47 AM52 °FSunny.6 mph38%30.16 "Hg10 mi
8:45 AM48 °FSunny.12 mph43%30.16 "Hg10 mi
7:50 AM45 °FSunny.6 mph53%30.15 "Hg10 mi
6:45 AM39 °FClear.5 mph61%30.12 "Hg10 mi
6:10 AM37 °FClear.No wind70%30.11 "Hg10 mi
5:30 AM39 °FClear.9 mph65%30.08 "Hg10 mi
5:10 AM41 °FClear.8 mph61%30.08 "Hg10 mi
4:50 AM39 °FClear.8 mph65%30.07 "Hg10 mi
4:30 AM43 °FClear.9 mph57%30.06 "Hg10 mi
4:10 AM43 °FClear.9 mph57%30.06 "Hg10 mi
3:30 AM43 °FClear.8 mph61%30.05 "Hg10 mi
3:10 AM43 °FClear.5 mph61%30.05 "Hg10 mi
2:50 AM43 °FClear.3 mph61%30.04 "Hg10 mi
2:30 AM43 °FClear.7 mph61%30.04 "Hg10 mi
2:10 AM43 °FClear.6 mph61%30.04 "Hg10 mi
1:50 AM43 °FClear.6 mph61%30.04 "Hg10 mi
1:30 AM45 °FClear.8 mph61%30.03 "Hg10 mi
1:10 AM45 °FClear.12 mph61%30.03 "Hg10 mi
12:50 AM45 °FClear.13 mph61%30.03 "Hg10 mi
12:30 AM46 °FClear.12 mph57%30.02 "Hg10 mi
12:10 AM46 °FClear.13 mph57%30.02 "Hg10 mi
Weather by CustomWeather, © 2014

See weather overview